Time,TemperatureF,DewpointF,PressureIn,WindDirection,WindDirectionDegrees,WindSpeedMPH,WindSpeedGustMPH,Humidity,HourlyPrecipIn,Conditions,Clouds,dailyrainin,SoftwareType,DateUTC
2013-01-23 00:12:00,9.0,5.0,30.04,NNW,330,12.0,18.0,84,0.00,,,0.00,,2013-01-23 06:12:00,
2013-01-23 00:22:00,9.0,5.0,30.04,NNW,330,12.0,18.0,84,0.00,,,0.00,,2013-01-23 06:22:00,
2013-01-23 00:32:00,9.0,5.0,30.04,NNW,330,12.0,18.0,84,0.00,,,0.00,,2013-01-23 06:32:00,
2013-01-23 00:42:00,9.0,5.0,30.04,NNW,330,12.0,18.0,84,0.00,,,0.00,,2013-01-23 06:42:00,
2013-01-23 00:51:00,9.0,5.0,30.06,NNW,337,12.0,22.0,83,0.00,,,0.00,,2013-01-23 06:51:00,
2013-01-23 01:12:00,9.0,5.0,30.06,NNW,337,12.0,22.0,83,0.00,,,0.00,,2013-01-23 07:12:00,
2013-01-23 01:22:00,9.0,5.0,30.06,NNW,337,12.0,22.0,83,0.00,,,0.00,,2013-01-23 07:22:00,
2013-01-23 01:33:00,9.0,5.0,30.06,NNW,337,12.0,22.0,83,0.00,,,0.00,,2013-01-23 07:33:00,
2013-01-23 01:42:00,9.0,5.0,30.06,NNW,337,12.0,22.0,83,0.00,,,0.00,,2013-01-23 07:42:00,
2013-01-23 01:51:00,7.0,2.0,30.08,NNW,345,8.0,18.0,82,0.00,,,0.00,,2013-01-23 07:51:00,
2013-01-23 02:22:00,7.0,2.0,30.08,NNW,345,8.0,18.0,82,0.00,,,0.00,,2013-01-23 08:22:00,
2013-01-23 02:33:00,7.0,2.0,30.08,NNW,345,8.0,18.0,82,0.00,,,0.00,,2013-01-23 08:33:00,
2013-01-23 02:42:00,7.0,2.0,30.08,NNW,345,8.0,18.0,82,0.00,,,0.00,,2013-01-23 08:42:00,
2013-01-23 02:51:00,5.0,0.0,30.09,SW,224,7.0,22.0,81,0.00,,,0.00,,2013-01-23 08:51:00,
2013-01-23 03:12:00,5.0,0.0,30.09,SW,224,7.0,22.0,81,0.00,,,0.00,,2013-01-23 09:12:00,
2013-01-23 03:22:00,5.0,0.0,30.09,SW,224,7.0,22.0,81,0.00,,,0.00,,2013-01-23 09:22:00,
2013-01-23 03:32:00,5.0,0.0,30.09,SW,224,7.0,22.0,81,0.00,,,0.00,,2013-01-23 09:32:00,
2013-01-23 03:43:00,5.0,0.0,30.09,SW,224,7.0,22.0,81,0.00,,,0.00,,2013-01-23 09:43:00,
2013-01-23 03:51:00,3.0,-1.0,30.11,North,357,7.0,20.0,82,0.00,,,0.00,,2013-01-23 09:51:00,
2013-01-23 04:12:00,3.0,-1.0,30.11,North,357,7.0,20.0,82,0.00,,,0.00,,2013-01-23 10:12:00,
2013-01-23 04:23:00,3.0,-1.0,30.11,North,357,7.0,20.0,82,0.00,,,0.00,,2013-01-23 10:23:00,
2013-01-23 04:33:00,3.0,-1.0,30.11,North,357,7.0,20.0,82,0.00,,,0.00,,2013-01-23 10:33:00,
2013-01-23 04:43:00,3.0,-1.0,30.11,North,357,7.0,20.0,82,0.00,,,0.00,,2013-01-23 10:43:00,
2013-01-23 04:51:00,3.0,-1.0,30.13,NW,324,9.0,18.0,82,0.00,,,0.00,,2013-01-23 10:51:00,
2013-01-23 05:12:00,3.0,-1.0,30.13,NW,324,9.0,18.0,82,0.00,,,0.00,,2013-01-23 11:12:00,
2013-01-23 05:23:00,3.0,-1.0,30.13,NW,324,9.0,18.0,82,0.00,,,0.00,,2013-01-23 11:23:00,
2013-01-23 05:33:00,3.0,-1.0,30.13,NW,324,9.0,18.0,82,0.00,,,0.00,,2013-01-23 11:33:00,
2013-01-23 05:43:00,3.0,-1.0,30.13,NW,324,9.0,18.0,82,0.00,,,0.00,,2013-01-23 11:43:00,
2013-01-23 05:51:00,1.0,-3.0,30.15,NNW,337,8.0,17.0,81,0.00,,,0.00,,2013-01-23 11:51:00,
2013-01-23 06:12:00,1.0,-3.0,30.15,NNW,337,8.0,17.0,81,0.00,,,0.00,,2013-01-23 12:12:00,
2013-01-23 06:22:00,1.0,-3.0,30.15,NNW,337,8.0,17.0,81,0.00,,,0.00,,2013-01-23 12:22:00,
2013-01-23 06:33:00,1.0,-3.0,30.15,NNW,337,8.0,17.0,81,0.00,,,0.00,,2013-01-23 12:33:00,
2013-01-23 06:43:00,1.0,-3.0,30.15,NNW,337,8.0,17.0,81,0.00,,,0.00,,2013-01-23 12:43:00,
2013-01-23 06:51:00,0.0,-5.0,30.18,NNW,336,10.0,18.0,81,0.00,,,0.00,,2013-01-23 12:51:00,
2013-01-23 07:13:00,0.0,-5.0,30.18,NNW,336,10.0,18.0,81,0.00,,,0.00,,2013-01-23 13:13:00,
2013-01-23 07:23:00,0.0,-5.0,30.18,NNW,336,10.0,18.0,81,0.00,,,0.00,,2013-01-23 13:23:00,
2013-01-23 07:33:00,0.0,-5.0,30.18,NNW,336,10.0,18.0,81,0.00,,,0.00,,2013-01-23 13:33:00,
2013-01-23 07:42:00,0.0,-5.0,30.18,NNW,336,10.0,18.0,81,0.00,,,0.00,,2013-01-23 13:42:00,
2013-01-23 08:51:00,-2.0,-7.0,30.23,NW,325,10.0,18.0,80,-99.99,,,0.00,,2013-01-23 14:51:00,
2013-01-23 09:12:00,-2.0,-7.0,30.23,NW,325,10.0,18.0,80,-99.99,,,0.00,,2013-01-23 15:12:00,
2013-01-23 09:23:00,-2.0,-7.0,30.23,NW,325,10.0,18.0,80,-99.99,,,0.00,,2013-01-23 15:23:00,
2013-01-23 09:33:00,-2.0,-7.0,30.23,NW,325,10.0,18.0,80,-99.99,,,0.00,,2013-01-23 15:33:00,
2013-01-23 09:43:00,-2.0,-7.0,30.23,NW,325,10.0,18.0,80,-99.99,,,0.00,,2013-01-23 15:43:00,
2013-01-23 09:51:00,-4.0,-9.0,30.26,NW,317,7.0,13.0,79,0.00,,,0.00,,2013-01-23 15:51:00,
2013-01-23 10:23:00,-4.0,-9.0,30.26,NW,317,7.0,13.0,79,0.00,,,0.00,,2013-01-23 16:23:00,
2013-01-23 10:33:00,-4.0,-9.0,30.26,NW,317,7.0,13.0,79,0.00,,,0.00,,2013-01-23 16:33:00,
2013-01-23 10:42:00,-4.0,-9.0,30.26,NW,317,7.0,13.0,79,0.00,,,0.00,,2013-01-23 16:42:00,
2013-01-23 10:51:00,0.0,-8.0,30.31,West,268,5.0,13.0,69,0.00,,,0.00,,2013-01-23 16:51:00,
2013-01-23 11:23:00,0.0,-8.0,30.31,West,268,5.0,13.0,69,0.00,,,0.00,,2013-01-23 17:23:00,
2013-01-23 11:33:00,0.0,-8.0,30.31,West,268,5.0,13.0,69,0.00,,,0.00,,2013-01-23 17:33:00,
2013-01-23 11:42:00,0.0,-8.0,30.31,West,268,5.0,13.0,69,0.00,,,0.00,,2013-01-23 17:42:00,
2013-01-23 11:51:00,0.0,-9.0,30.34,North,354,5.0,15.0,67,0.00,,,0.00,,2013-01-23 17:51:00,
2013-01-23 12:12:00,0.0,-9.0,30.34,North,354,5.0,15.0,67,0.00,,,0.00,,2013-01-23 18:12:00,
2013-01-23 12:23:00,0.0,-9.0,30.34,North,354,5.0,15.0,67,0.00,,,0.00,,2013-01-23 18:23:00,
2013-01-23 12:33:00,0.0,-9.0,30.34,North,354,5.0,15.0,67,0.00,,,0.00,,2013-01-23 18:33:00,
2013-01-23 12:43:00,0.0,-9.0,30.34,North,354,5.0,15.0,67,0.00,,,0.00,,2013-01-23 18:43:00,
2013-01-23 12:51:00,-2.0,-10.0,30.35,NNE,16,9.0,15.0,67,0.00,,,0.00,,2013-01-23 18:51:00,
2013-01-23 13:13:00,-2.0,-10.0,30.35,NNE,16,9.0,15.0,67,0.00,,,0.00,,2013-01-23 19:13:00,
2013-01-23 13:23:00,-2.0,-10.0,30.35,NNE,16,9.0,15.0,67,0.00,,,0.00,,2013-01-23 19:23:00,
2013-01-23 13:33:00,-2.0,-10.0,30.35,NNE,16,9.0,15.0,67,0.00,,,0.00,,2013-01-23 19:33:00,
2013-01-23 13:43:00,-2.0,-10.0,30.35,NNE,16,9.0,15.0,67,0.00,,,0.00,,2013-01-23 19:43:00,
2013-01-23 13:51:00,0.0,-9.0,30.34,NNE,32,9.0,15.0,67,0.00,,,0.00,,2013-01-23 19:51:00,
2013-01-23 14:23:00,0.0,-9.0,30.34,NNE,32,9.0,15.0,67,0.00,,,0.00,,2013-01-23 20:23:00,
2013-01-23 14:33:00,0.0,-9.0,30.34,NNE,32,9.0,15.0,67,0.00,,,0.00,,2013-01-23 20:33:00,
2013-01-23 14:43:00,0.0,-9.0,30.34,NNE,32,9.0,15.0,67,0.00,,,0.00,,2013-01-23 20:43:00,
2013-01-23 14:51:00,-2.0,-11.0,30.35,NE,34,6.0,12.0,66,0.00,,,0.00,,2013-01-23 20:51:00,
2013-01-23 15:12:00,-2.0,-11.0,30.35,NE,34,6.0,12.0,66,0.00,,,0.00,,2013-01-23 21:12:00,
2013-01-23 15:23:00,-2.0,-11.0,30.35,NE,34,6.0,12.0,66,0.00,,,0.00,,2013-01-23 21:23:00,
2013-01-23 15:33:00,-2.0,-11.0,30.35,NE,34,6.0,12.0,66,0.00,,,0.00,,2013-01-23 21:33:00,
2013-01-23 15:42:00,-2.0,-11.0,30.35,NE,34,6.0,12.0,66,0.00,,,0.00,,2013-01-23 21:42:00,
2013-01-23 15:51:00,1.0,-10.0,30.37,North,2,4.0,9.0,59,0.00,,,0.00,,2013-01-23 21:51:00,
2013-01-23 16:23:00,1.0,-10.0,30.37,North,2,4.0,9.0,59,0.00,,,0.00,,2013-01-23 22:23:00,
2013-01-23 16:33:00,1.0,-10.0,30.37,North,2,4.0,9.0,59,0.00,,,0.00,,2013-01-23 22:33:00,
2013-01-23 16:42:00,1.0,-10.0,30.37,North,2,4.0,9.0,59,0.00,,,0.00,,2013-01-23 22:42:00,
2013-01-23 16:51:00,-4.0,-12.0,30.38,NNE,28,2.0,6.0,68,0.00,,,0.00,,2013-01-23 22:51:00,
2013-01-23 17:13:00,-4.0,-12.0,30.38,NNE,28,2.0,6.0,68,0.00,,,0.00,,2013-01-23 23:13:00,
2013-01-23 17:23:00,-4.0,-12.0,30.38,NNE,28,2.0,6.0,68,0.00,,,0.00,,2013-01-23 23:23:00,
2013-01-23 17:33:00,-4.0,-12.0,30.38,NNE,28,2.0,6.0,68,0.00,,,0.00,,2013-01-23 23:33:00,
2013-01-23 17:43:00,-4.0,-12.0,30.38,NNE,28,2.0,6.0,68,0.00,,,0.00,,2013-01-23 23:43:00,
2013-01-23 17:51:00,-6.0,-12.0,30.37,ENE,58,4.0,7.0,75,0.00,,,0.00,,2013-01-23 23:51:00,
2013-01-23 18:12:00,-6.0,-12.0,30.37,ENE,58,4.0,7.0,75,0.00,,,0.00,,2013-01-24 00:12:00,
2013-01-23 18:22:00,-6.0,-12.0,30.37,ENE,58,4.0,7.0,75,0.00,,,0.00,,2013-01-24 00:22:00,
2013-01-23 18:32:00,-6.0,-12.0,30.37,ENE,58,4.0,7.0,75,0.00,,,0.00,,2013-01-24 00:32:00,
2013-01-23 18:42:00,-6.0,-12.0,30.37,ENE,58,4.0,7.0,75,0.00,,,0.00,,2013-01-24 00:42:00,
2013-01-23 18:51:00,-6.0,-11.0,30.37,ENE,77,6.0,9.0,78,0.00,,,0.00,,2013-01-24 00:51:00,
2013-01-23 19:23:00,-6.0,-11.0,30.37,ENE,77,6.0,9.0,78,0.00,,,0.00,,2013-01-24 01:23:00,
2013-01-23 19:33:00,-6.0,-11.0,30.37,ENE,77,6.0,9.0,78,0.00,,,0.00,,2013-01-24 01:33:00,
2013-01-23 19:42:00,-6.0,-11.0,30.37,ENE,77,6.0,9.0,78,0.00,,,0.00,,2013-01-24 01:42:00,
2013-01-23 19:51:00,-6.0,-11.0,30.36,East,84,9.0,15.0,78,0.00,,,0.00,,2013-01-24 01:51:00,
2013-01-23 20:12:00,-6.0,-11.0,30.36,East,84,9.0,15.0,78,0.00,,,0.00,,2013-01-24 02:12:00,
2013-01-23 20:22:00,-6.0,-11.0,30.36,East,84,9.0,15.0,78,0.00,,,0.00,,2013-01-24 02:22:00,
2013-01-23 20:33:00,-6.0,-11.0,30.36,East,84,9.0,15.0,78,0.00,,,0.00,,2013-01-24 02:33:00,
2013-01-23 20:42:00,-6.0,-11.0,30.36,East,84,9.0,15.0,78,0.00,,,0.00,,2013-01-24 02:42:00,
2013-01-23 20:51:00,-6.0,-11.0,30.36,ESE,108,10.0,15.0,77,0.00,,,0.00,,2013-01-24 02:51:00,
2013-01-23 21:12:00,-6.0,-11.0,30.36,ESE,108,10.0,15.0,77,0.00,,,0.00,,2013-01-24 03:12:00,
2013-01-23 21:22:00,-6.0,-11.0,30.36,ESE,108,10.0,15.0,77,0.00,,,0.00,,2013-01-24 03:22:00,
2013-01-23 21:33:00,-6.0,-11.0,30.36,ESE,108,10.0,15.0,77,0.00,,,0.00,,2013-01-24 03:33:00,
2013-01-23 21:43:00,-6.0,-11.0,30.36,ESE,108,10.0,15.0,77,0.00,,,0.00,,2013-01-24 03:43:00,
2013-01-23 21:51:00,-8.0,-12.0,30.37,SE,126,10.0,15.0,79,0.00,,,0.00,,2013-01-24 03:51:00,
2013-01-23 22:22:00,-8.0,-12.0,30.37,SE,126,10.0,15.0,79,0.00,,,0.00,,2013-01-24 04:22:00,
2013-01-23 22:32:00,-8.0,-12.0,30.37,SE,126,10.0,15.0,79,0.00,,,0.00,,2013-01-24 04:32:00,
2013-01-23 22:42:00,-8.0,-12.0,30.37,SE,126,10.0,15.0,79,0.00,,,0.00,,2013-01-24 04:42:00,
2013-01-23 22:51:00,-6.0,-10.0,30.33,SE,138,12.0,17.0,82,0.00,,,0.00,,2013-01-24 04:51:00,
2013-01-23 23:22:00,-6.0,-10.0,30.33,SE,138,12.0,17.0,82,0.00,,,0.00,,2013-01-24 05:22:00,
2013-01-23 23:33:00,-6.0,-10.0,30.33,SE,138,12.0,17.0,82,0.00,,,0.00,,2013-01-24 05:33:00,
2013-01-23 23:42:00,-6.0,-10.0,30.33,SE,138,12.0,17.0,82,0.00,,,0.00,,2013-01-24 05:42:00,
2013-01-23 23:51:00,-6.0,-10.0,30.34,SE,139,13.0,17.0,82,0.00,,,0.00,,2013-01-24 05:51:00,